Home > Weather > Larvik > Past weeks

Flag for Norway Weather for the Past 2 Weeks in Larvik, Norway

Now
19 °F

Partly sunny.


Feels Like: 13 °F
Forecast: 19 / 35 °F
Wind: 5 mph from North

Location: Torp

Current Time: Feb 14, 2016 at 9:38:37 AM

Latest Report: Feb 14, 2016 at 8:50 AM


Visibility: N/A

Pressure: 29.53 "Hg

Humidity: 93%

Dew point: 18 °F

Location of LarvikLocation

Historic Weather in Larvik — Graph

°F

Larvik Temperature Yesterday

Maximum temperature yesterday: 27 °F (at 12:50 AM)
Minimum temperature yesterday: 16 °F (at 10:50 PM)
Average temperature yesterday: 24 °F

High & Low Weather Summary for the Past Weeks

 TemperatureHumidityPressure
High43 °F (Feb 6, 7:50 AM)100% (Jan 30, 10:50 PM)29.92 "Hg (Jan 30, 10:50 PM)
Low16 °F (Feb 13, 10:50 PM)38% (Feb 12, 1:50 PM)28.74 "Hg (Feb 2, 6:20 PM)
Average34 °F83%29.29 "Hg
* Reported Jan 30 8:20 AM — Feb 14 8:20 AM, Larvik, Weather by CustomWeather, © 2016

Note: Actual official high and low records may vary slightly from our data, if they occured in-between our weather recording intervals... More about our weather records

Advertising

Larvik Weather History for the Previous 24 Hours

 ConditionsComfort  
Time TempWeatherWind HumidityBarometerVisibility
8:20 AM
Sun, Feb 14
19 °FOvercast.6 mph93%29.53 "HgN/A
7:50 AM19 °FOvercast.5 mph93%29.53 "HgN/A
7:20 AM19 °FOvercast.5 mph93%29.53 "HgN/A
6:50 AM19 °FOvercast.3 mph93%29.53 "HgN/A
6:20 AM18 °FPassing clouds.3 mph100%29.50 "HgN/A
5:50 AM18 °FOvercast.5 mph93%29.50 "HgN/A
5:20 AM19 °FOvercast.3 mph93%29.50 "HgN/A
4:50 AM18 °FOvercast.3 mph93%29.50 "HgN/A
4:20 AM18 °FPassing clouds.5 mph93%29.50 "HgN/A
3:50 AM18 °FCold.3 mph100%29.50 "HgN/A
3:20 AM18 °FPassing clouds.5 mph100%29.50 "HgN/A
2:50 AM19 °FOvercast.3 mph93%29.50 "HgN/A
2:20 AM18 °FOvercast.5 mph93%29.50 "HgN/A
1:50 AM16 °FPassing clouds.3 mph100%29.50 "HgN/A
1:20 AM18 °FPassing clouds.3 mph93%29.50 "HgN/A
12:50 AM16 °FCold.3 mph100%29.50 "HgN/A
12:20 AM18 °FCold.3 mph100%29.50 "HgN/A
11:50 PM
Sat, Feb 13
16 °FCold.3 mph100%29.50 "HgN/A
11:20 PM16 °FCold.2 mph100%29.47 "HgN/A
10:50 PM16 °FClear.3 mph100%29.47 "Hg10 mi
10:20 PM19 °FClear.2 mph100%29.47 "Hg10 mi
9:50 PM19 °FClear.3 mph100%29.47 "Hg10 mi
9:20 PM21 °FClear.2 mph100%29.47 "Hg10 mi
8:57 PM19 °FClear.2 mph100%29.47 "Hg10 mi
8:20 PM19 °FClear.2 mph100%29.47 "Hg10 mi
7:50 PM21 °FClear.1 mph93%29.47 "Hg10 mi
7:20 PM21 °FClear.1 mph93%29.47 "Hg10 mi
6:50 PM23 °FPassing clouds.No wind86%29.45 "HgN/A
6:20 PM23 °FPassing clouds.1 mph86%29.45 "HgN/A
5:50 PM23 °FPassing clouds.1 mph86%29.45 "HgN/A
5:20 PM25 °FPassing clouds.2 mph86%29.45 "HgN/A
4:50 PM27 °FScattered clouds.2 mph80%29.45 "HgN/A
4:20 PM27 °FPartly sunny.1 mph80%29.45 "HgN/A
3:50 PM27 °FScattered clouds.2 mph86%29.45 "HgN/A
3:20 PM27 °FPartly sunny.2 mph80%29.45 "HgN/A
2:50 PM27 °FLight snow. Mostly cloudy.3 mph86%29.45 "Hg4 mi
2:20 PM27 °FLight mixture of precip. Scattered clouds.5 mph86%29.45 "HgN/A
1:50 PM27 °FLight mixture of precip. Scattered clouds.5 mph86%29.45 "HgN/A
1:20 PM27 °FLight mixture of precip. Scattered clouds.3 mph80%29.45 "HgN/A
12:50 PM27 °FScattered clouds.7 mph80%29.45 "HgN/A
12:20 PM27 °FPassing clouds.6 mph80%29.45 "HgN/A
11:50 AM27 °FPassing clouds.5 mph80%29.45 "HgN/A
11:20 AM27 °FPassing clouds.5 mph80%29.45 "HgN/A
10:50 AM27 °FPassing clouds.7 mph86%29.45 "HgN/A
10:20 AM27 °FPassing clouds.6 mph86%29.45 "HgN/A
9:50 AM25 °FPassing clouds.7 mph100%29.45 "HgN/A
9:20 AM23 °FPassing clouds.6 mph100%29.45 "HgN/A
Weather by CustomWeather, © 2016

See weather overviewHow to use our weather pages